Regional Weather Roundup
Issued by NWS

Home | Current Version | Previous Version | Graphics & Text | Print | Product List | Glossary On
Versions: 1 2 3 4 5 6 7 8 9 10 11 12 13 14 15 16 17 18 19 20 21 22 23 24 25 26 27 28
000
ASUS45 KGTF 050810
RWRMT
MONTANA HOURLY WEATHER ROUNDUP
NATIONAL WEATHER SERVICE GREAT FALLS MT
200 AM MDT TUE MAY 05 2015

NOTE: "FAIR" INDICATES FEW OR NO CLOUDS BELOW 12000 FEET WITH NO
SIGNIFICANT WEATHER AND/OR OBSTRUCTIONS TO VISIBILITY.

MTZ001>007-043-050900-
WEST OF THE DIVIDE

CITY           SKY/WX    TMP DP  RH WIND       PRES   REMARKS
KALISPELL      PTSUNNY   45  36  70 CALM      29.80R
MISSOULA       PTCLDY    57  34  41 NW12      29.83R
BUTTE          PTCLDY    41  28  60 SE5       29.88F
DEER LODGE       N/A     45  30  57 CALM      29.87F
EUREKA           N/A     46  28  49 CALM      29.77S
HAMILTON         N/A     50  36  57 NW3       29.82R
LIBBY            N/A     43  30  61 CALM      29.79R
$$

MTZ008-052>055-050900-
SOUTHWEST MONTANA

CITY           SKY/WX    TMP DP  RH WIND       PRES   REMARKS
BOZEMAN        CLEAR     46  37  71 CALM      29.84S
DILLON         PTCLDY    51  31  46 S6        29.86S
$$

MTZ009-010-012-014-046-048-049-054-050900-
EAST SLOPES AND CENTRAL MONTANA

CITY           SKY/WX    TMP DP  RH WIND       PRES   REMARKS
CUT BANK       CLEAR     46  24  42 SW6       29.78S
GREAT FALLS    PTCLDY    46  31  55 SW6       29.79S
MALMSTROM AFB  PTCLDY    47  27  44 S6        29.79S
HELENA         CLEAR     53  28  38 W5        29.80F
$$

MTZ011-013-016-021-045-047-050-051-050900-
NORTH CENTRAL MONTANA

CITY           SKY/WX    TMP DP  RH WIND       PRES   REMARKS
HAVRE          CLEAR     44  37  76 W5        29.74S
LEWISTOWN      CLEAR     49  38  65 SE5       29.83F
CHINOOK          N/A     57  43  58 E7        29.75F
FORT BENTON      N/A     52  37  58 CALM      29.78R
$$

MTZ017>020-022>042-056>058-061-062-050900-
EASTERN PLAINS

CITY           SKY/WX    TMP DP  RH WIND       PRES   REMARKS
BAKER          CLEAR     44  32  62 SE15      29.99F
BILLINGS       PTCLDY    53  42  66 S7        29.84F
GLASGOW        CLEAR     48  36  63 E14       29.85F
JORDAN           N/A     51  38  60 VRB3      29.85S
LIVINGSTON     CLEAR     42  36  79 W3        29.87S
MILES CITY     CLEAR     52  36  54 SE17      29.90F
SIDNEY         CLEAR     45  28  53 S6        29.98F
WOLF POINT     CLEAR     50  35  56 VRB5      29.90F
BIG TIMBER       N/A     46  36  66 W5        29.87S
FORSYTH          N/A     54  39  58 NE6       29.86F
PLENTYWOOD       N/A     46  34  61 E9        29.96F
POPLAR           N/A     50  34  53 E13       29.92F
$$

REGIONAL REPORTS...DAKOTAS

CITY           SKY/WX    TMP DP  RH WIND       PRES   REMARKS
WILLISTON      CLEAR     51  29  42 S6        29.99F
MINOT          CLOUDY    54  31  41 SE9       30.07F
DICKINSON      CLEAR     42  28  57 SE10      30.02F
BEACH          FAIR      45  28  53 SE16      30.00F
CROSBY         FAIR      50  32  50 S18G24    29.98F
WATFORD CITY   FAIR      54  25  32 S20G25    29.99F
BISMARCK       CLOUDY    53  30  41 SE6       30.10F
GRAND FORKS    CLEAR     44  25  47 S8        30.17S
FARGO          CLEAR     50  27  40 SE7       30.18F
BUFFALO SD       N/A     44  29  55 SE16      29.95F
RAPID CITY     CLEAR     44  35  70 S8        30.05F
$$

REGIONAL REPORTS...WYOMING/IDAHO/WASHINGTON

CITY           SKY/WX    TMP DP  RH WIND       PRES   REMARKS
GILLETTE       PTCLDY    46  34  62 S21       29.97F
SHERIDAN       PTCLDY    49  42  77 SE10      29.88F
BUFFALO WY     MOCLDY    47  42  83 SE17      29.93F
CODY           PTCLDY    52  39  62 S13       29.90F
YELLOWSTONE LA   N/A     30  28  92 NW3       30.07S
IDAHO FALLS    PTCLDY    53  42  66 CALM      29.89F
SALMON           N/A     46  34  61 CALM      29.83S
BOISE          MOCLDY    66  38  35 VRB3      29.78R
SPOKANE        PTCLDY    50  34  54 S14       29.83R
$$

REGIONAL REPORTS...ALBERTA

CITY           SKY/WX    TMP DP  RH WIND       PRES   REMARKS
EDMONTON       CLEAR     45  30  57 E20G29    29.79S
CALGARY        CLEAR     43  25  49 CALM      29.68F
LETHBRIDGE     CLEAR     39  27  60 W6        29.71F
MEDICINE HAT   CLEAR     43  32  65 SW7       29.70F
$$

REGIONAL REPORTS...SASKATCHEWAN

CITY           SKY/WX    TMP DP  RH WIND       PRES   REMARKS
SWIFT CURRENT  CLEAR     52  43  71 SE13      29.78F
REGINA         MOCLDY    52  37  58 NW16      29.96R
SASKATOON      PTCLDY    48  32  53 E13       29.87F
$$



USA.gov is the U.S. government's official web portal to all federal, state and local government web resources and services.